Location: Township of Marena
(38.1747°N, 99.6798°W)
Time: 11:46:33
(UTC+00:00)

CZ-4B R/B - Pass Details

Date: 26 October 2020
Orbit: 389 x 462 km, 97.6° (Epoch: 24 November)

Event Time Altitude Azimuth Distance (km) Brightness Sun altitude
Rises 00:40:04 0° 1° (N) 2,393 5.0 -11.1°
Reaches altitude 10° 00:42:13 10° 351° (N) 1,508 4.1 -11.5°
Maximum altitude 00:45:06 31° 287° (WNW) 751 3.2 -12.1°
Drops below altitude 10° 00:47:55 10° 223° (SW) 1,462 4.7 -12.6°
Sets 00:49:59 0° 213° (SSW) 2,304 5.6 -13.0°
